Regional Weather Roundup
Issued by NWS Wakefield, VA

Home | Current Version | Previous Version | Graphics & Text | Print | Product List | Glossary On
Versions: 1 2 3 4 5 6 7 8 9 10 11 12 13 14 15 16 17 18 19 20 21 22 23 24 25 26 27
000
ASUS41 KAKQ 192114
RWRAKQ

REGIONAL WEATHER ROUNDUP
NATIONAL WEATHER SERVICE WAKEFIELD VA
500 PM EDT THU OCT 19 2017

Note: "fair" indicates few or no clouds below 12,000 feet with no
significant weather and/or obstructions to visibility. * = Denotes
station may not report precipitation (e.g., rain,snow,etc.),
thunder or fog.

VAZ042-051-052>054-056-192200-
NORTHERN VIRGINIA

CITY           SKY/WX    TMP DP  RH WIND       PRES   REMARKS
WASH NATIONAL  MOSUNNY   71  51  49 S9        30.16F
DULLES         MOSUNNY   73  45  36 S6        30.15F
FORT BELVOIR   SUNNY     72  47  42 S3        30.15F
QUANTICO       NOT AVBL
FREDERICKSBRG* SUNNY     75  48  38 S5        30.15F
STAFFORD*      SUNNY     73  43  33 S6        30.19F
WARRENTON      SUNNY     75  39  26 SW6       30.15F
CULPEPER*      SUNNY     76  40  27 S6        30.16F
MANASSAS*      SUNNY     74  47  38 S7        30.15F
LEESBURG*      SUNNY     73  48  40 S6        30.15F
WINCHESTER     SUNNY     72  45  37 SW3       30.14F
FRONT ROYAL*   CLEAR     75  39  27 SW5       30.13F
LURAY*         CLEAR     77  36  22 S6        30.15F
$$

VAZ048-049-060>072-079>083-192200-
CENTRAL AND SOUTH CENTRAL VIRGINIA

CITY           SKY/WX    TMP DP  RH WIND       PRES   REMARKS
RICHMOND       MOSUNNY   73  43  33 SW7       30.17F
CHESTERFIELD*  NOT AVBL
PETERSBURG*      N/A     74  35  24 CALM      30.19F
HANOVER        SUNNY     73  44  35 SW7       30.18F
TAPPAHANNOCK*  SUNNY     75  29  18 SW3       30.18F
QUINTON*       FAIR      73  42  33 SW3       30.18S
CHARLOTTSVILLE SUNNY     75  44  33 S8        30.16F
GORDONSVILLE*  CLEAR     74  45  35 S6        30.16F
ORANGE*        SUNNY     73  43  33 SW7       30.16F
LOUISA*        SUNNY     72  46  40 CALM      30.17F
BUMPASS*       FAIR      72  46  39 SW5       30.17F
FARMVILLE*     SUNNY     76  44  31 S7        30.17F
CREWE*         FAIR      74  43  32 S3        30.19F
FORT PICKETT*  FAIR      74  36  25 SW6       30.19F
CHASE CITY*    FAIR      73  39  28 CALM      30.19F
CLARKSVILLE*   FAIR      73  41  31 SW6       30.19F
SOUTH HILL*    SUNNY     73  45  37 W3        30.25F
LAWRENCEVILLE* FAIR      73  41  31 SW6       30.19F
EMPORIA*       SUNNY     73  50  43 S6        30.20F
$$

VAZ088>098-192200-
SOUTHEAST VIRGINIA

CITY           SKY/WX    TMP DP  RH WIND       PRES   REMARKS
NORFOLK        SUNNY     72  58  61 E5        30.18F
VIRGINIA BEACH MOSUNNY   70  56  61 SE7       30.17F
NORFOLK NAVAL  MOSUNNY   74  54  49 VRB5      30.19F
WEST POINT*    SUNNY     73  49  43 SW3       30.19F
SALUDA*        FAIR      72  54  53 CALM      30.18F
NEWPORT NEWS   SUNNY     73  52  47 SW8       30.18F
LANGLEY AFB    SUNNY     77  55  46 W8        30.17F
FORT EUSTIS    SUNNY     77  56  47 CALM      30.15F HAZE
WILLIAMSBURG*  SUNNY     75  54  46 W5        30.19F
HR EXEC AP*    NOT AVBL
FRANKLIN*      SUNNY     74  51  43 SW3       30.19S
US460-WAKEFLD  SUNNY     74  53  48 W6        30.18F
$$

VAZ020-022-025-037-045-192200-
WEST CENTRAL AND SOUTHWEST VIRGINIA

CITY           SKY/WX    TMP DP  RH WIND       PRES   REMARKS
STAUNTON*      SUNNY     74  42  31 S6        30.19F
WAYNESBORO*    CLEAR     72  40  32 SW5       30.19F
HOT SPRINGS VA SUNNY     65  29  26 CALM      30.28F
LYNCHBURG      SUNNY     73  38  27 SW6       30.20F
DANVILLE       SUNNY     73  44  35 W3        30.21F
SOUTH BOSTON*  FAIR      74  37  26 CALM      30.20F
MARTINSVILLE   SUNNY     73  45  36 CALM      30.23F
ROANOKE        SUNNY     75  43  31 CALM      30.22F
BLACKSBURG     SUNNY     71  44  37 CALM      30.27F
DUBLIN*        SUNNY     74  36  25 NW5       30.25F
MARION*        SUNNY     68  35  29 W8        30.29F
HILLSVILLE*    SUNNY     70  12  10 CALM      30.25F
RICHLANDS*     FAIR      68 -41   1 W5        30.28F
WISE*          SUNNY     70  45  40 SW3       30.29F
ABINGDON*      SUNNY     70  40  33 W6        30.27F
$$

MDZ021>025-VAZ099-100-192200-
SOUTHERN MARYLAND AND THE DELMARVA PENINSULA

CITY           SKY/WX    TMP DP  RH WIND       PRES   REMARKS
PATUXENT RIVER MOSUNNY   71  48  43 SW5       30.16F
BAY BRIDGE APT SUNNY     70  52  52 S9        30.16F
LEONARDTOWN    NOT AVBL
DOVER          MOSUNNY   72  46  40 SW12      30.13F
GEORGETOWN     SUNNY     71  45  39 W8        30.16F
EASTON         SUNNY     70  46  43 SW8       30.20F
CAMBRIDGE      SUNNY     68  50  52 SW5       30.17F
SALISBURY      SUNNY     68  50  52 W8        30.17F
OCEAN CITY     SUNNY     68  58  70 SW8       30.17F
WALLOPS ISLAND SUNNY     69  52  54 MISG      30.18F
ACCOMACK*      SUNNY     71  53  53 SW7       30.18S
$$

NCZ012>017-030>032-192200-
NORTH CENTRAL AND EASTERN NORTH CAROLINA

CITY           SKY/WX    TMP DP  RH WIND       PRES   REMARKS
ROANOKE RAPIDS FAIR      73  54  49 W3        30.20F
RALEIGH        MOSUNNY   75  46  35 W3        30.21F
ELIZABETH CITY SUNNY     76  58  53 CALM      30.18F
AHOSKIE*       SUNNY     72  55  53 CALM      30.19F
EDENTON*       DRIZZLE   78  52  40 CALM      30.19F
CURRITUCK*     SUNNY     73  60  63 E3        30.19F
KILL DEVIL HLS SUNNY     71  58  64 CALM      30.18F
MANTEO         SUNNY    N/A N/A N/A E7        30.19F
CAPE HATTERAS  SUNNY     75  61  61 NE7       30.18S
TARBORO*       NOT AVBL
GOLDSBORO      SUNNY     78  55  44 N7        30.18F
WASHINGTON     SUNNY     76  53  44 N5        30.19S
GREENVILLE     SUNNY     77  52  41 CALM      30.20F
NEW BERN       SUNNY     77  57  50 E3        30.19F
WILMINGTON     CLOUDY    78  58  49 SE6       30.18S
$$

VAZ048-192200-
ELSEWHERE

CITY           SKY/WX    TMP DP  RH WIND       PRES   REMARKS
HARRISBURG PA  SUNNY     71  47  42 W9        30.11F
BALTIMORE      MOSUNNY   72  46  39 SW5       30.14F
ANNAPOLIS      NOT AVBL
ANDREWS AFB    SUNNY     70  46  42 S7        30.15F
PHILADELPHIA   MOSUNNY   71  44  37 SW12      30.13F
HENDERSON NC   SUNNY     72  37  27 NW3       30.20F
GREENSBORO     MOSUNNY   75  42  30 W5        30.21F
ROCKY MOUNT    SUNNY     74  54  49 W5        30.20F
$$

VAZ100-192200-
MARINE

STATION/POSITION TIME  TEMP    WIND        PRES    WAVE   SWELL
                       AIR SEA DIR/SP/G            HT/PER HT/PER
                 (UTC) (F)     (DEG/KT/KT) (MB)    (FT/S) (FT/S)
BRANDYWINE LGT   2042   68     170/  7/ 10 1021.5F
CAPE MAY NJ      2048   66 65  170/  6/  7 1020.7F
LEWES DE         2042   71 65  280/  6/ 10 1020.9F
15NM E FENWICK I 2050   67 68  190/ 14/ 16 1021.7F   3/ 9   3/ 9
OCEAN-CITY-INLET 2042   68 66  220/ 11/ 14 1021.9F
WACHAPREAGUE VA  2042   71 65  240/  5/ 10 1022.0F
THOMAS POINT MD  2100   68 68  170/ 14/ 15   N/A
GOOSES REEF MD   2100   70 69  250/  8/ 12 1023.9    1
COVE POINT MD    2042   69     210/  7/  8 1022.2F
SOLOMONS ISLAND  2042   71 69  240/  9/ 11 1021.1F
BISHOPS HEAD MD  2042   66 66  170/  6/  7 1022.2F
PINEY POINT MD   2042          120/  3/  4   N/A
POTOMAC MD       2100   69 70  120/  4/  4 1021.0    0
CAMBRIDGE MD     2042   71 67              1022.4F
LEWISETTA VA     2042   71 66  260/  6/  7 1021.4F
RAPPAHANNOCK LGT 2042          180/  8/ 10 1022.7F
STINGRAY PT      2100   72 69  270/  6/  6 1022.2    1
YORK RVR RNG VA  2042   69     120/  4/  5 1022.6F
YORKTOWN VA      2042   72 70  260/  7/  8 1021.7F
JAMESTOWN VA     2100      71  270/  2/  4   N/A     0
DOMINION TERM VA 2042   72      CALM  /  2 1022.3F
KIPTOPEKE VA     2042      69  160/  6/  7   N/A
CAPE HENRY VA    2042   68     100/  4/  5   N/A
WILLOUBY STN VA  2042   72     290/  3/  4 1022.1F
S CRANEY ISL VA  2042   73      80/  2/  3 1021.8F
CAPE HENRY BUOY  2100      71                N/A     3/ 8
1ST LANDING BUOY 2100   68 70              1021.9    1/ 5
CAPE CHARLES BUO 2021      72                N/A     3/ 9
64NM E OF VA BCH 2050   69 70   20/  4/  4 1022.9F   3/10   3/10
DUCK PIER NC     2042   74 70  100/  5/  6 1021.9F
44100 DUCK FRF   2035      71                N/A     3/ 9   2/11
44056 DUCK FRF   2030      70                N/A     3/ 7
OREGON INLET NC  2042   71 67   30/  6/  8 1022.3F
HATTERAS NC      2042   71 69   20/  7/  8 1022.0F
DIAMOND SHLS NC  2050   75 81   10/ 10/ 14 1021.6S   4/ 9   5/ 9
CAPE LOOKOUT NC  2100   73      40/  9/ 11 1021.6F
$$




USA.gov is the U.S. government's official web portal to all federal, state and local government web resources and services.